Weather in Yenimahalle

Turkey     39°57′48″N   32°48′30″E
temp.,
°C
wind,
m/s
gust,
m/s
humid.,
%
clouds,
%
prec.,
mm/h
press.,
hPa
HPBL,
m
2 march, tue
tue200:00+1ene125687 0.0 102722
03:000ne226493 0.0 102732
06:000ne2268100 0.0 102740
09:00+2ne3461100 0.0 1028443
12:00+4ne444899 0.0 10261408
15:00+6ene5446100 0.1 10251485
18:00+4ene465273 0.0 10241234
21:00+1nne366950 0.0 1026144
3 march, wed
wed300:000n337418 0.0 102763
03:00−1n33789 0.0 102768
06:00−1n22790 0.0 102729
09:00+1n236425 0.0 1028300
12:00+6n453721 0.0 1026826
15:00+9n673611 0.0 10241176
18:00+6nne46490 0.0 1024532
21:00+1nne33700 0.0 102761
4 march, thu
thu400:00−1nne22750 0.0 102834
03:00−1nne11730 0.0 102822
06:00−2nne11740 0.0 102821
09:00+1e00640 0.0 1028256
12:00+4wsw11530 0.0 1025792
15:00+7wsw22390 0.0 10211010
18:00+7wsw22440 0.0 102081
21:00+2sw12580 0.0 102222
5 march, fri
fri500:000sw11630 0.0 102222
03:000sw01630 0.0 102222
06:00−1ne00640 0.0 102222
09:00+3se00480 0.0 1023112
12:00+8sw12340 0.0 1020657
15:00+12wsw34260 0.0 10171063
18:00+11sw33340 0.0 101753
21:00+6se12420 0.0 101922
6 march, sat
sat600:00+3s12500 0.0 102022
03:00+3s114945 0.0 101922
06:00+3ssw0150100 0.0 101922
09:00+7s1147100 0.0 102028
12:00+12wsw5933100 0.0 10181494
15:00+11wsw61043100 0.0 10161705
18:00+12wsw5104766 0.0 10161237
21:00+7w6117479 0.0 1019594